Hayward, WI

6:30 PM CST on November 20, 2019 (GMT -0600)
Sawyer County

Weather History for KHYR - September, 2019

Change the Weather History Date:

Monday, September 16, 2019

  Actual Average Record
Temperature  
Mean Temperature 66 °F -  
Max Temperature 82 °F 76 °F 84 °F (2018)
Min Temperature 50 °F 43 °F 28 °F (2011)
Growing Degree Days 16 (Base 50)    
Moisture  
Dew Point 57 °F    
Average Humidity 77    
Maximum Humidity 94    
Minimum Humidity 47    
Precipitation  
Precipitation 0.00 in - - ()
Sea Level Pressure  
Sea Level Pressure 30.06 in    
Wind  
Wind Speed 3 mph (South)    
Max Wind Speed 12 mph    
Max Gust Speed -    
Visibility 8 miles    
Events      
Averages and records for this station are not official NWS values.
T = Trace of Precipitation, MM = Missing Value Source: NWS Daily Summary

Daily Weather History Graph

Daily Weather History Graph

Search for Another Location

Airport or City:

Astronomy

Sep. 16, 2019 Rise Set
Actual Time 6:44 AM CDT 7:15 PM CDT
Civil Twilight 6:14 AM CDT 7:45 PM CDT
Nautical Twilight 5:39 AM CDT 8:20 PM CDT
Astronomical Twilight 5:02 AM CDT 8:57 PM CDT
Moon 8:43 PM CDT (9/16) 8:57 AM CDT (9/16)
Length of Visible Light 13h 30m
Length of Day
12h 30m
Waning Gibbous, 94% of the Moon is Illuminated
Sep 16
Waning Gibbous
Sep 21
Last Quarter
Sep 28
New
Oct 5
First Quarter
Oct 13
Full

Hourly Weather History & Observations

Time (CDT) Temp. Heat Index Dew Point Humidity Pressure Visibility Wind Dir Wind Speed Gust Speed Precip Events Conditions
12:05 AM 55.0 °F - 52.0 °F 89% 30.04 in 0.8 mi Calm Calm - N/A   Mist
12:32 AM 53.1 °F - 51.1 °F 93% 30.04 in 1.5 mi Calm Calm - N/A   Mostly Cloudy
12:34 AM 54.0 °F - 52.0 °F 93% 30.04 in 4.0 mi Calm Calm - N/A   Mostly Cloudy
12:51 AM 53.6 °F - 51.8 °F 94% 30.04 in 5.0 mi Calm Calm - N/A   Scattered Clouds
12:53 AM 54.0 °F - 52.0 °F 93% 30.04 in 6.0 mi Calm Calm - N/A   Scattered Clouds
1:53 AM 52.0 °F - 50.0 °F 93% 30.06 in 7.0 mi Calm Calm - N/A   Clear
2:53 AM 52.0 °F - 50.0 °F 93% 30.06 in 6.0 mi Calm Calm - N/A   Clear
3:18 AM 52.0 °F - 50.0 °F 93% 30.07 in 7.0 mi NNE 3.5 mph - N/A   Partly Cloudy
3:53 AM 51.1 °F - 48.9 °F 92% 30.07 in 8.0 mi Calm Calm - N/A   Clear
4:53 AM 51.1 °F - 48.9 °F 92% 30.08 in 7.0 mi Calm Calm - N/A   Clear
5:53 AM 50.0 °F - 48.0 °F 93% 30.08 in 6.0 mi Calm Calm - N/A   Clear
6:53 AM 51.1 °F - 48.9 °F 92% 30.09 in 6.0 mi Calm Calm - N/A   Clear
7:53 AM 57.9 °F - 55.0 °F 90% 30.11 in 8.0 mi Calm Calm - N/A   Clear
8:53 AM 66.9 °F - 60.1 °F 79% 30.10 in 10.0 mi South 6.9 mph - N/A   Clear
9:53 AM 71.1 °F - 61.0 °F 70% 30.10 in 10.0 mi South 8.1 mph - N/A   Clear
10:53 AM 73.9 °F - 62.1 °F 66% 30.09 in 10.0 mi South 6.9 mph - N/A   Clear
11:53 AM 77.0 °F - 62.1 °F 60% 30.09 in 10.0 mi South 9.2 mph - N/A   Clear
12:53 PM 80.1 °F 81.2 °F 62.1 °F 54% 30.08 in 10.0 mi SSE 9.2 mph - N/A   Clear
1:53 PM 81.0 °F 81.3 °F 59.0 °F 47% 30.06 in 10.0 mi SSE 11.5 mph - N/A   Clear
2:53 PM 81.0 °F 81.3 °F 59.0 °F 47% 30.05 in 10.0 mi South 11.5 mph - N/A   Clear
3:53 PM 81.0 °F 82.2 °F 63.0 °F 54% 30.04 in 10.0 mi SSE 5.8 mph - N/A   Clear
4:53 PM 80.1 °F 81.2 °F 62.1 °F 54% 30.03 in 10.0 mi South 8.1 mph - N/A   Clear
5:53 PM 78.1 °F - 62.1 °F 58% 30.02 in 10.0 mi South 6.9 mph - N/A   Clear
6:53 PM 73.9 °F - 62.1 °F 66% 30.02 in 10.0 mi South 4.6 mph - N/A   Clear
7:53 PM 70.0 °F - 62.1 °F 76% 30.02 in 10.0 mi South 4.6 mph - N/A   Clear
8:53 PM 69.1 °F - 61.0 °F 75% 30.02 in 10.0 mi South 4.6 mph - N/A   Clear
9:53 PM 70.0 °F - 61.0 °F 73% 30.03 in 10.0 mi South 5.8 mph - N/A   Clear
10:53 PM 70.0 °F - 61.0 °F 73% 30.03 in 10.0 mi South 5.8 mph - N/A   Clear
11:53 PM 69.1 °F - 62.1 °F 78% 30.03 in 10.0 mi South 5.8 mph - N/A   Clear